Regional Weather Roundup
Issued by NWS Goodland, KS

Home | Current Version | Previous Version | Graphics & Text | Print | Product List | Glossary On
Versions: 1 2 3 4 5 6 7 8 9 10 11 12 13 14 15 16 17 18 19 20 21 22 23 24 25 26 27 28 29 30 31 32 33 34 35 36 37 38 39 40 41 42 43 44 45 46 47 48 49 50
000
ASUS43 KGLD 281659
RWRGLD

GOODLAND FORECAST AREA HOURLY WEATHER ROUNDUP
NATIONAL WEATHER SERVICE GOODLAND KS
1000 AM MST WED JAN 28 2015

...OFFICIAL OBSERVATIONS...

CITY           SKY/WX    TMP DP  RH WIND       PRES   REMARKS
GOODLAND KS    CLOUDY    50  34  54 NW14      29.97S
HILL CITY KS   PTSUNNY   61  34  36 NW23G32   29.87R
IMPERIAL NEB   PTSUNNY   60  32  34 NW22G35   29.92R
MCCOOK NEB     CLOUDY    56  35  45 W20G25    29.89R
AKRON CO       SUNNY     51  31  46 NW20G28   30.01R
BURLINGTON CO  PTSUNNY   53  33  46 NW15      30.00R
LIMON CO       SUNNY     53  23  31 NW20      30.06R
$$

...UNOFFICIAL OBSERVATIONS...

CITY           SKY/WX    TMP DP  RH WIND       PRES   REMARKS
COLBY KS       SUNNY     55  37  50 NW17      29.95S
GOVE KS          N/A     61  32  33 MISG        N/A
NORTON KS      SUNNY     57  30  35 NW21G26   29.85S
SHARON SPRINGS   N/A     57  35  44 N17G25      N/A
KIT CARSON CO    N/A     55  31  39 MISG        N/A
YUMA CO          N/A     52  31  44 NW25        N/A
$$



USA.gov is the U.S. government's official web portal to all federal, state and local government web resources and services.